Weather History for Saginaw Browne, MI

Change the Weather History Date:

Saturday, July 13, 2013

  Actual Average (KMBS) Record (KMBS)
Temperature  
Mean Temperature 70 °F 71 °F  
Max Temperature 84 °F 82 °F 93 °F (2012)
Min Temperature 55 °F 60 °F 51 °F (2007)
Degree Days  
Heating Degree Days 0    
Month to date heating degree days  
Since 1 June heating degree days  
Since 1 July heating degree days  
Cooling Degree Days 4    
Month to date cooling degree days  
Year to date cooling degree days  
Since 1 June cooling degree days  
Growing Degree Days 20 (Base 50)    
Moisture  
Dew Point 60 °F    
Average Humidity 71    
Maximum Humidity 100    
Minimum Humidity 37    
Precipitation  
Precipitation 0.00 in 0.07 in 0.73 in (2014)
Month to date precipitation 1.05  
Year to date precipitation 15.68  
Snow  
Snow 0.00 in - - ()
Month to date snowfall  
Since 1 June snowfall  
Since 1 July snowfall  
Snow Depth -    
Sea Level Pressure  
Sea Level Pressure 30.20 in    
Wind  
Wind Speed 3 mph (East)    
Max Wind Speed 10 mph    
Max Gust Speed -    
Visibility 10 miles    
Events      
T = Trace of Precipitation, MM = Missing Value Source: NWS Daily Summary

Daily Weather History Graph

Daily Weather History Graph

Search for Another Location

Airport:

Trip Planner

Search our weather history database for the weather conditions in past years. The results will help you decide how hot, cold, wet, or windy it might be!

Date:

Astronomy

Jul. 13, 2013 Rise Set
Actual Time 6:07 AM EDT 9:15 PM EDT
Civil Twilight 5:32 AM EDT 9:49 PM EDT
Nautical Twilight 4:47 AM EDT 10:33 PM EDT
Astronomical Twilight 3:54 AM EDT 11:27 PM EDT
Moon 11:33 AM EDT (7/13) 11:43 PM EDT (7/13)
Length of Visible Light 16h 17m
Length of Day
15h 08m
Waxing Crescent, 25% of the Moon is Illuminated
Jul 13
Waxing Crescent
Jul 15
First Quarter
Jul 22
Full
Jul 29
Last Quarter
Aug 6
New

Hourly Weather History & Observations

Time (EDT) Temp. Heat Index Dew Point Humidity Pressure Visibility Wind Dir Wind Speed Gust Speed Precip Events Conditions
12:11 AM 64.4 °F - 62.6 °F 94% 30.17 in 10.0 mi East 5.8 mph - N/A   Clear
12:31 AM 64.4 °F - 62.6 °F 94% 30.16 in 10.0 mi Calm Calm - N/A   Clear
12:51 AM 64.4 °F - 62.6 °F 94% 30.16 in 10.0 mi SE 4.6 mph - N/A   Clear
1:12 AM 62.6 °F - 60.8 °F 94% 30.17 in 10.0 mi ESE 3.5 mph - N/A   Clear
1:32 AM 62.6 °F - 60.8 °F 94% 30.16 in 10.0 mi Calm Calm - N/A   Clear
1:52 AM 62.6 °F - 60.8 °F 94% 30.17 in 10.0 mi Calm Calm - N/A   Clear
2:12 AM 60.8 °F - 60.8 °F 100% 30.17 in 10.0 mi Calm Calm - N/A   Clear
2:32 AM 60.8 °F - 60.8 °F 100% 30.17 in 10.0 mi Calm Calm - N/A   Clear
2:52 AM 60.8 °F - 60.8 °F 100% 30.17 in 10.0 mi Calm Calm - N/A   Clear
3:12 AM 59.0 °F - 59.0 °F 100% 30.17 in 10.0 mi Calm Calm - N/A   Clear
3:33 AM 59.0 °F - 59.0 °F 100% 30.17 in 10.0 mi Calm Calm - N/A   Clear
3:53 AM 60.8 °F - 60.8 °F 100% 30.17 in 10.0 mi Calm Calm - N/A   Clear
4:13 AM 60.8 °F - 60.8 °F 100% 30.18 in 10.0 mi Calm Calm - N/A   Clear
4:33 AM 59.0 °F - 59.0 °F 100% 30.18 in 10.0 mi Calm Calm - N/A   Clear
4:53 AM 59.0 °F - 59.0 °F 100% 30.19 in 10.0 mi Calm Calm - N/A   Clear
5:13 AM 59.0 °F - 59.0 °F 100% 30.19 in 10.0 mi Calm Calm - N/A   Clear
5:33 AM 59.0 °F - 59.0 °F 100% 30.19 in 10.0 mi Calm Calm - N/A   Clear
5:53 AM 55.4 °F - 55.4 °F 100% 30.19 in 10.0 mi Calm Calm - N/A   Clear
6:13 AM 55.4 °F - 55.4 °F 100% 30.19 in 10.0 mi Calm Calm - N/A   Clear
6:33 AM 57.2 °F - 57.2 °F 100% 30.19 in 7.0 mi Calm Calm - N/A   Clear
6:53 AM 57.2 °F - 57.2 °F 100% 30.19 in 10.0 mi Calm Calm - N/A   Clear
7:13 AM 59.0 °F - 59.0 °F 100% 30.21 in 10.0 mi Calm Calm - N/A   Clear
7:33 AM 60.8 °F - 60.8 °F 100% 30.21 in 10.0 mi Calm Calm - N/A   Clear
7:53 AM 62.6 °F - 62.6 °F 100% 30.20 in 10.0 mi Calm Calm - N/A   Clear
8:14 AM 64.4 °F - 62.6 °F 94% 30.20 in 10.0 mi Calm Calm - N/A   Clear
8:34 AM 66.2 °F - 64.4 °F 94% 30.21 in 10.0 mi Calm Calm - N/A   Clear
8:54 AM 68.0 °F - 64.4 °F 88% 30.21 in 10.0 mi Calm Calm - N/A   Clear
9:14 AM 71.6 °F - 66.2 °F 83% 30.22 in 10.0 mi Calm Calm - N/A   Clear
9:34 AM 73.4 °F - 62.6 °F 69% 30.22 in 10.0 mi SSE 4.6 mph - N/A   Clear
9:54 AM 75.2 °F - 60.8 °F 61% 30.22 in 10.0 mi SSE 5.8 mph - N/A   Clear
10:14 AM 77.0 °F - 60.8 °F 57% 30.21 in 10.0 mi SE 10.4 mph - N/A   Clear
10:34 AM 77.0 °F - 60.8 °F 57% 30.21 in 10.0 mi SSE 6.9 mph - N/A   Clear
10:55 AM 78.8 °F - 60.8 °F 54% 30.21 in 10.0 mi SE 8.1 mph - N/A   Clear
11:10 AM 78.8 °F - 60.8 °F 54% 30.22 in 10.0 mi SE 6.9 mph - N/A   Clear
11:30 AM 78.8 °F - 59.0 °F 51% 30.22 in 10.0 mi SE 3.5 mph - N/A   Clear
11:50 AM 80.6 °F 80.3 °F 53.6 °F 39% 30.23 in 10.0 mi ESE 4.6 mph - N/A   Clear
12:10 PM 80.6 °F 80.5 °F 55.4 °F 42% 30.23 in 10.0 mi SE 3.5 mph - N/A   Clear
12:30 PM 78.8 °F - 59.0 °F 51% 30.21 in 10.0 mi SSE 5.8 mph - N/A   Clear
12:50 PM 80.6 °F 81.1 °F 59.0 °F 48% 30.21 in 10.0 mi ENE 4.6 mph - N/A   Clear
1:10 PM 80.6 °F 80.8 °F 57.2 °F 45% 30.21 in 10.0 mi Calm Calm - N/A   Clear
1:30 PM 80.6 °F 81.1 °F 59.0 °F 48% 30.21 in 10.0 mi Calm Calm - N/A   Scattered Clouds
1:50 PM 80.6 °F 80.8 °F 57.2 °F 45% 30.21 in 10.0 mi NNE 4.6 mph - N/A   Scattered Clouds
2:10 PM 82.4 °F 81.7 °F 55.4 °F 39% 30.21 in 10.0 mi ESE 3.5 mph - N/A   Scattered Clouds
2:30 PM 82.4 °F 81.7 °F 55.4 °F 39% 30.21 in 10.0 mi ESE 4.6 mph - N/A   Clear
2:50 PM 82.4 °F 81.7 °F 55.4 °F 39% 30.21 in 10.0 mi SE 4.6 mph - N/A   Clear
3:10 PM 82.4 °F 81.4 °F 53.6 °F 37% 30.21 in 10.0 mi Calm Calm - N/A   Clear
3:31 PM 82.4 °F 81.4 °F 53.6 °F 37% 30.20 in 10.0 mi SE 4.6 mph - N/A   Clear
3:51 PM 82.4 °F 81.4 °F 53.6 °F 37% 30.20 in 10.0 mi ESE 5.8 mph - N/A   Clear
4:11 PM 82.4 °F 81.4 °F 53.6 °F 37% 30.19 in 10.0 mi East 5.8 mph - N/A   Clear
4:31 PM 84.2 °F 83.0 °F 55.4 °F 37% 30.19 in 10.0 mi ESE 5.8 mph - N/A   Clear
4:51 PM 82.4 °F 81.4 °F 53.6 °F 37% 30.19 in 10.0 mi East 8.1 mph - N/A   Clear
5:11 PM 82.4 °F 82.5 °F 59.0 °F 45% 30.19 in 10.0 mi ENE 5.8 mph - N/A   Scattered Clouds
5:31 PM 82.4 °F 82.0 °F 57.2 °F 42% 30.18 in 10.0 mi ESE 4.6 mph - N/A   Scattered Clouds
5:51 PM 82.4 °F 82.0 °F 57.2 °F 42% 30.18 in 10.0 mi East 5.8 mph - N/A   Clear
6:12 PM 82.4 °F 83.4 °F 62.6 °F 51% 30.18 in 10.0 mi NE 9.2 mph - N/A   Clear
6:32 PM 80.6 °F 81.8 °F 62.6 °F 54% 30.18 in 10.0 mi NNE 8.1 mph - N/A   Clear
6:52 PM 80.6 °F 81.8 °F 62.6 °F 54% 30.18 in 10.0 mi NNE 8.1 mph - N/A   Clear
7:12 PM 80.6 °F 81.8 °F 62.6 °F 54% 30.18 in 10.0 mi NE 10.4 mph - N/A   Clear
7:32 PM 78.8 °F - 62.6 °F 57% 30.18 in 10.0 mi NNE 8.1 mph - N/A   Clear
7:52 PM 78.8 °F - 62.6 °F 57% 30.18 in 10.0 mi NNE 6.9 mph - N/A   Clear
8:12 PM 77.0 °F - 60.8 °F 57% 30.19 in 10.0 mi NNE 3.5 mph - N/A   Clear
8:33 PM 77.0 °F - 62.6 °F 61% 30.19 in 10.0 mi NNE 3.5 mph - N/A   Clear
8:53 PM 73.4 °F - 62.6 °F 69% 30.19 in 10.0 mi NNE 3.5 mph - N/A   Clear
9:13 PM 71.6 °F - 62.6 °F 73% 30.19 in 10.0 mi Calm Calm - N/A   Clear
9:33 PM 71.6 °F - 62.6 °F 73% 30.19 in 10.0 mi Calm Calm - N/A   Clear
9:53 PM 71.6 °F - 62.6 °F 73% 30.21 in 10.0 mi Calm Calm - N/A   Clear
10:13 PM 69.8 °F - 62.6 °F 78% 30.21 in 10.0 mi East 4.6 mph - N/A   Clear
10:33 PM 71.6 °F - 62.6 °F 73% 30.22 in 10.0 mi East 4.6 mph - N/A   Clear
10:53 PM 71.6 °F - 60.8 °F 69% 30.22 in 10.0 mi East 3.5 mph - N/A   Clear
11:13 PM 68.0 °F - 60.8 °F 78% 30.22 in 10.0 mi East 4.6 mph - N/A   Clear
11:33 PM 69.8 °F - 60.8 °F 73% 30.22 in 10.0 mi East 5.8 mph - N/A   Clear
11:54 PM 69.8 °F - 60.8 °F 73% 30.23 in 10.0 mi East 4.6 mph - N/A   Clear